Location: Proctor
(47.8934°N, 114.3048°W)
Time: 09:49:17
(UTC+00:00)

Courier 1B - Visible Passes

Search period start: 21 June 2024 00:00
Search period end: 01 July 2024 00:00
Orbit: 962 x 1208 km, 28.3° (Epoch: 21 June)

Date Brightness Start Highest point End Pass type
(mag) Time Alt. Az. Time Alt. Az. Time Alt. Az.
21 Jun 9.3 09:32:25 15° S 09:33:17 15° S 09:37:20 10° SE visible
22 Jun 9.5 08:41:49 12° SSE 08:41:49 12° SSE 08:43:07 10° SE visible
22 Jun 9.3 10:28:41 11° SW 10:32:29 16° S 10:36:49 10° SSE visible
23 Jun 9.2 09:38:12 16° S 09:38:53 16° S 09:43:07 10° SE visible
24 Jun 9.5 08:47:49 13° SSE 08:47:49 13° SSE 08:49:14 10° SE visible
24 Jun 9.3 10:34:44 10° SW 10:38:06 14° S 10:41:40 10° SSE visible
25 Jun 9.2 09:44:32 15° S 09:44:32 15° S 09:48:19 10° SSE visible
26 Jun 9.6 08:54:33 10° SSE 08:54:33 10° SSE 08:54:46 10° SSE visible
26 Jun 9.4 10:42:25 10° SSW 10:43:41 10° SSW 10:44:58 10° S visible
27 Jun 9.5 09:51:46 11° S 09:51:46 11° S 09:52:41 10° S visible
30 Jun 9.3 05:15:33 10° S 05:15:43 10° S 05:15:43 10° S visible
